AO-07 1 07530U 74089B 18004.51085959 -.00000040 00000-0 26311-4 0 9990 2 07530 101.6629 334.4495 0011885 293.2764 179.6368 12.53630543973854 UO-11 1 14781U 84021B 18004.71623986 .00000052 00000-0 12590-4 0 9999 2 14781 97.6716 47.7062 0007087 256.9547 103.0876 14.82971040820219 LO-19 1 20442U 90005G 18004.81277442 .00000003 00000-0 17130-4 0 9993 2 20442 98.5956 304.4461 0010651 273.3057 86.6909 14.32883161460496 HUBBLE 1 20580U 90037B 18004.76468292 .00000450 00000-0 16644-4 0 9995 2 20580 28.4695 115.3520 0002629 177.5456 315.1835 15.08957020320763 MET-2/21 1 22782U 93055A 18004.60868955 .00000010 00000-0 -43983-5 0 9997 2 22782 082.5480 223.7347 0021461 224.0764 197.3220 13.83805670229285 AO-27 1 22825U 93061C 18004.49450989 -.00000015 00000-0 11841-4 0 9995 2 22825 098.8413 337.8391 0009451 102.3827 257.8413 14.30018312265905 IO-26 1 22826U 93061D 18004.82899097 -.00000003 00000-0 16449-4 0 9996 2 22826 98.8355 338.2368 0009999 92.5019 267.7307 14.30348976266400 FO-29 1 24278U 96046B 18004.59002831 -.00000052 00000-0 -18364-4 0 9994 2 24278 098.5320 225.7422 0350466 175.1557 185.3124 13.53080699055863 NOAA-15 1 25338U 98030A 18004.61688696 .00000015 00000-0 25092-4 0 9992 2 25338 098.7769 020.8761 0010286 347.7837 012.3092 14.25833793021453 GO-32 1 25397U 98043D 18004.83630761 -.00000002 00000-0 18072-4 0 9992 2 25397 98.6335 308.1279 0002195 112.6811 247.4600 14.23637302 12488 ISS 1 25544U 98067A 18004.83745632 .00001822 00000-0 34611-4 0 9993 2 25544 51.6426 113.0552 0002914 337.7068 165.8166 15.54257546 93114 NO-44 1 26931U 01043C 18004.82012420 -.00000033 00000-0 19339-4 0 9997 2 26931 67.0520 290.9430 0005220 274.7387 85.3118 14.30489583849188 SO-50 1 27607U 02058C 18004.86168325 -.00000017 00000-0 18109-4 0 9991 2 27607 64.5543 229.2393 0045277 9.8282 350.3695 14.75409302808861 CO-55 1 27844U 03031E 18004.58662128 .00000046 00000-0 40632-4 0 9992 2 27844 098.6884 015.6477 0010679 122.0702 238.1514 14.22086722752908 CO-57 1 27848U 03031J 18004.57099050 .00000031 00000-0 33972-4 0 9996 2 27848 098.6973 015.9725 0010477 131.1788 229.0295 14.21694573752780 RS-22 1 27939U 03042A 18004.86863015 .00000100 00000-0 26506-4 0 9993 2 27939 97.9653 148.4764 0011880 310.0804 205.0302 14.66646050762879 NOAA-18 1 28654U 05018A 18004.60285730 -.00000008 00000-0 20736-4 0 9994 2 28654 099.1651 036.5645 0013789 224.0391 135.9682 14.12362923650598 CO-58 1 28895U 05043F 18004.39515636 .00000132 00000-0 34089-4 0 9999 2 28895 097.8852 162.7160 0015965 223.9428 136.0506 14.63494216649686 Falconsat-3 1 30776U 07006E 18004.08187130 .00002014 00000-0 61896-4 0 9998 2 30776 35.4343 230.8140 0003643 326.6915 33.3582 15.33705949599107 CO-65 1 32785U 08021C 18004.51495490 .00000206 00000-0 28002-4 0 9990 2 32785 097.5542 024.4565 0012196 215.9135 144.1264 14.88040392524765 AAUSAT2 1 32788U 08021F 18004.82958508 .00000778 00000-0 77683-4 0 9994 2 32788 97.5386 38.0078 0012261 169.0840 191.0649 14.94177182525785 DO-64 1 32789U 08021G 18004.58096333 .00001448 00000-0 10432-3 0 9990 2 32789 097.5347 063.3814 0013668 132.8477 227.3901 15.05646568527067 CO-66 1 32791U 08021J 18004.53294601 .00000368 00000-0 43091-4 0 9994 2 32791 097.5475 029.4295 0012962 197.3814 162.6962 14.90437051525058 RS-30 1 32953U 08025A 18004.81683742 .00000028 00000-0 13083-3 0 9997 2 32953 82.5040 114.2870 0019262 203.2567 156.7643 12.43080735436470 PRISM 1 33493U 09002B 18004.64584974 .00000514 00000-0 51355-4 0 9996 2 33493 98.1458 260.3203 0016210 133.6307 226.6275 14.96023026485895 NOAA-19 1 33591U 09005A 18004.55363185 .00000087 00000-0 72214-4 0 9999 2 33591 99.1212 339.5194 0014925 67.6877 292.5874 14.12243080459081 TISAT-1 1 36799U 10035E 18004.40527692 .00000250 00000-0 31604-4 0 9996 2 36799 098.0840 136.5458 0012906 032.0470 328.1529 14.90658767405553 JUGNU 1 37839U 11058B 18004.26935681 .00000307 00000-0 21925-4 0 9991 2 37839 19.9621 311.2099 0018849 239.4196 270.8345 14.12605750322163 SRMSAT 1 37841U 11058D 18004.40828653 .00000292 00000-0 15299-4 0 9990 2 37841 019.9734 356.1914 0012025 130.9630 024.1358 14.10595448321638 AO-71 1 37854U 11061E 18004.49325690 .00001094 00000-0 65394-4 0 9992 2 37854 101.7084 345.6162 0164903 198.7145 160.7958 15.04987752336753 HRBE 1 37855U 11061F 18004.57502887 .00000354 00000-0 26696-4 0 9997 2 37855 101.7205 343.4065 0177883 206.2130 152.9995 15.03959758336586 ALMASAT-1 1 38078U 12006B 18004.82676523 .00031390 39407-5 30247-3 0 9990 2 38078 69.4356 305.8991 0271778 351.1054 38.6419 15.32513398315568 HORYU-2 1 38340U 12025D 18004.57635106 .00000197 00000-0 37080-4 0 9993 2 38340 098.3749 020.6040 0011897 017.5864 342.5754 14.75478398292570 RS-40 1 38735U 12041C 18004.58368658 -.00000003 00000-0 -92930-4 0 9998 2 38735 082.4740 198.6144 0016434 311.6463 048.3209 12.42576190246687 BEESAT-3 1 39134U 13015E 18004.85052180 .00001035 00000-0 58948-4 0 9999 2 39134 64.8642 295.0821 0029547 231.6851 128.1619 15.18690578260097 BEESAT-2 1 39136U 13015G 18004.45652240 .00000888 00000-0 56107-4 0 9990 2 39136 064.8706 309.9771 0031867 254.1688 105.5923 15.15781803259381 ZACUBE-1 1 39417U 13066B 18004.59704162 .00000207 00000-0 32666-4 0 9993 2 39417 097.6062 041.8095 0058406 332.1934 027.6160 14.80854130222586 TRITON-1 1 39427U 13066M 18004.53622021 .00000202 00000-0 40038-4 0 9998 2 39427 97.6363 11.3777 0115466 64.0447 297.2602 14.67591974220572 GOMX-1 1 39430U 13066Q 18004.87954705 .00000191 00000-0 43147-4 0 9997 2 39430 97.6800 353.6988 0152785 125.8022 235.7489 14.58999840219345 LO-74 1 39440U 13066AA 18004.58551071 .00000210 00000-0 36437-4 0 9991 2 39440 097.6118 029.4609 0080734 007.8528 352.3925 14.75591699220599 AO-73 1 39444U 13066AE 18004.61032124 .00000260 00000-0 38705-4 0 9997 2 39444 097.6076 043.1375 0057482 328.0897 031.6839 14.81615667220848 SPROUT 1 39770U 14029E 18004.84612197 .00000643 00000-0 78607-4 0 9998 2 39770 97.8759 107.3400 0009830 33.5990 326.5857 14.86615933196094 DUCHIFAT-1 1 40021U 14033M 18004.56124395 .00000410 00000-0 48273-4 0 9999 2 40021 097.9176 282.9863 0013221 004.2454 355.8873 14.90159617192581 NANOSATCBR1 1 40024U 14033Q 18004.72405927 .00000349 00000-0 42640-4 0 9996 2 40024 97.9122 281.7009 0012506 5.5966 354.5389 14.89444623192547 EO-79 1 40025U 14033R 18004.81365497 .00000261 00000-0 34024-4 0 9994 2 40025 97.9092 280.5157 0012776 8.9610 351.1832 14.88610138192481 DTUSAT-2 1 40030U 14033W 18004.80325131 .00000256 00000-0 33751-4 0 9990 2 40030 97.9048 279.4002 0012101 4.3072 355.8246 14.88224236192433 EO-80 1 40032U 14033Y 18004.78696975 .00000258 00000-0 34020-4 0 9998 2 40032 97.9055 279.3884 0012051 4.7033 355.4294 14.88159803192420 ANTELSAT 1 40034U 14033AA 18004.72727500 .00000235 00000-0 42660-4 0 9997 2 40034 97.8330 247.1037 0059196 5.7893 354.3987 14.73840865190611 VELOX-1 1 40057U 14034E 18004.81230462 .00000344 00000-0 56028-4 0 9993 2 40057 98.1952 113.1766 0012238 128.1452 232.0866 14.77316080189525 DAURIA DX 1 1 40071U 14037C 18004.79763045 .00000122 00000-0 23136-4 0 9995 2 40071 98.3550 129.1115 0009544 120.1245 240.0914 14.81109534188813 UKUBE-1 1 40074U 14037F 18004.61550211 .00000318 00000-0 45556-4 0 9995 2 40074 98.3659 133.8627 0005798 115.8686 244.3128 14.83692663189045 HODOYOSHI-1 1 40299U 14070B 18004.83253856 .00000595 00000-0 28465-4 0 9997 2 40299 97.3917 89.4222 0014900 102.7271 327.0794 15.22677852175621 CHUBUSAT-1 1 40300U 14070C 18004.79113117 .00000783 00000-0 37839-4 0 9994 2 40300 97.3810 85.8794 0021973 113.1198 2.7085 15.21328524175439 QSAT-EOS 1 40301U 14070D 18004.75396495 .00001784 00000-0 75340-4 0 9994 2 40301 97.3757 86.5176 0028731 107.0364 8.1433 15.24208764175521 FIREBIRD FU3 1 40377U 15003B 18004.59467771 .00001493 00000-0 65442-4 0 9991 2 40377 099.1064 233.7994 0133930 054.6160 306.7495 15.16543820161513 FIREBIRD FU4 1 40378U 15003C 18004.58468737 .00001496 00000-0 65496-4 0 9996 2 40378 099.1066 233.8371 0134133 054.5472 306.8190 15.16556590161518 GRIFEX 1 40379U 15003D 18004.84518290 .00001055 00000-0 50509-4 0 9996 2 40379 99.1101 231.0579 0140712 63.8758 297.6867 15.13840169161387 NO-84 1 40654U 15025D 18004.39480858 .00006588 00000-0 11537-3 0 01854 2 40654 054.9939 054.6586 0169438 054.4392 307.2261 15.37751321030629 NO-83 1 40655U 15025E 18004.31292500 .00014487 00000-0 17936-3 0 02152 2 40655 054.9782 014.9997 0129109 077.5253 283.9934 15.50993193030801 DEORBITSAIL 1 40719U 15032E 18004.57582580 .00000380 00000-0 62184-4 0 9991 2 40719 097.9616 260.5905 0015585 211.9206 148.1061 14.76295448134035 NUDT-PHONESAT 1 40900U 15049B 18004.81803677 .00001796 00000-0 84963-4 0 9992 2 40900 97.4422 15.0327 0012249 237.4660 122.5392 15.20621830127087 XW-2A 1 40903U 15049E 18004.77700930 .00001686 00000-0 44526-4 0 9997 2 40903 97.4031 37.8932 0012760 258.5738 101.4075 15.39853964128651 XW-2C 1 40906U 15049H 18004.85645240 .00000575 00000-0 34301-4 0 9997 2 40906 97.4574 11.3967 0013798 232.4725 127.5254 15.14959973126768 XW-2D 1 40907U 15049J 18004.82424480 .00000610 00000-0 36069-4 0 9999 2 40907 97.4546 11.0850 0013189 230.1634 129.8438 15.15093784126763 LILACSAT-2 1 40908U 15049K 18004.83765499 .00000314 00000-0 21218-4 0 9990 2 40908 97.4653 10.6602 0014803 230.6275 129.3645 15.13373519126662 XW-2F 1 40910U 15049M 18004.82917050 .00000912 00000-0 50641-4 0 9990 2 40910 97.4557 12.1121 0014007 226.7165 133.2901 15.16173635126693 XW-2B 1 40911U 15049N 18004.83605854 .00000592 00000-0 35154-4 0 9994 2 40911 97.4585 11.5685 0013100 230.5906 129.4167 15.15044283126665 DCBB 1 40912U 15049P 18004.87339302 .00001343 00000-0 68587-4 0 9992 2 40912 97.4507 14.5597 0014270 214.8887 264.9652 15.18350342126884 TW-1C 1 40926U 15051B 18004.89616061 .00007053 00000-0 14366-3 0 9991 2 40926 97.2054 48.1033 0011515 145.6533 339.8684 15.46490248128059 TW-1A 1 40928U 15051D 18004.85256801 .00003034 00000-0 83907-4 0 9994 2 40928 97.2052 41.9916 0011728 182.6981 229.5760 15.37728905127675 IO-86 1 40931U 15052B 18004.66702272 .00000699 00000-0 83017-5 0 9993 2 40931 5.9956 236.1356 0012996 218.1366 141.7830 14.76561281122799 LQSat 1 40958U 15057A 18004.72909210 .00000022 00000-0 11157-4 0 9990 2 40958 97.9598 81.3208 0019077 137.1786 223.0911 14.73010328120789 AO-85 1 40967U 15058D 18004.33206173 .00000368 00000-0 59192-4 0 02005 2 40967 064.7775 328.6241 0188908 006.1542 354.1820 14.75610985029473 ATHENOXAT-1 1 41168U 15077C 18004.70486111 .00002025 00000-0 75212-4 0 9991 2 41168 14.9877 136.4489 0012098 290.8953 282.4805 15.12355620113586 ChubuSat-2 1 41338U 16012B 18004.14190554 .00000321 00000-0 18353-4 0 9991 2 41338 031.0034 275.8385 0014041 248.7773 111.1363 14.99899718103182 ChubuSat-3 1 41339U 16012C 18004.77532396 .00000308 00000-0 17251-4 0 9996 2 41339 31.0094 270.6465 0013822 261.8716 98.0354 15.00093045103264 Horyu-4 1 41340U 16012D 18004.85410464 .00000437 00000-0 26759-4 0 9994 2 41340 31.0051 266.1788 0014299 273.1018 86.7981 15.00852359103336 OUFTI-1 1 41458U 16025C 18004.81541583 .00001883 00000-0 10305-3 0 9996 2 41458 98.1594 58.7941 0170739 335.6113 23.7069 15.04125901 92874 e-st@r-II 1 41459U 16025D 18004.79539141 .00001660 00000-0 91781-4 0 9992 2 41459 98.1622 58.6733 0171390 336.4808 22.8628 15.03901563 92864 AAUSAT4 1 41460U 16025E 18004.71885415 .00001976 00000-0 10767-3 0 9998 2 41460 98.1537 58.8669 0163118 333.7969 25.5043 15.05129957 92893 LO-87 1 41557U 16033B 18004.78799082 .00001121 00000-0 43848-4 0 9994 2 41557 97.4491 89.2477 0014404 21.9783 338.2071 15.27887032 89204 NuSat2 1 41558U 16033C 18004.77780513 .00001174 00000-0 46035-4 0 9992 2 41558 97.4520 89.3132 0013831 21.1066 339.0741 15.27718412 89192 Lapan A3 1 41603U 16040E 18004.76919806 .00000308 00000-0 17706-4 0 9990 2 41603 97.4362 69.0492 0015317 90.2457 35.6238 15.19494479 85262 Swayam 1 41607U 16040J 18004.61022334 .00001331 00000-0 61727-4 0 9998 2 41607 097.4362 069.7315 0015631 092.2867 268.0159 15.21714349085227 Pratham 1 41783U 16059A 18004.59827387 .00000048 00000-0 18814-4 0 9994 2 41783 098.1418 068.6058 0032472 248.2494 111.5251 14.62892029068047 AlSat 1N 1 41789U 16059G 18004.69281567 .00000099 00000-0 27951-4 0 9993 2 41789 98.1425 69.5952 0027021 240.8319 119.0187 14.64116664 68094 ScatSat 1 41790U 16059H 18004.58995316 .00000014 00000-0 14880-4 0 9991 2 41790 098.2843 055.1413 0017312 231.1952 128.7698 14.50856049067469 TY-1 1 41844U 16066D 18004.81060245 .00001388 00000-0 62330-4 0 9997 2 41844 97.4047 14.0081 0013930 249.3813 235.4972 15.22768542 64019 CAS-2T 1 41845U 16066E 18004.65203225 .00000093 00000-0 24661-4 0 9994 2 41845 98.7669 29.9864 0366821 10.4010 350.4492 14.37848192 60447 Pegasus-1 1 41846U 16066F 18004.59236322 .00000290 00000-0 54627-4 0 9996 2 41846 098.7691 029.5696 0368862 012.5157 348.4888 14.37231324060409 STARS-C 1 41895U 98067KR 18004.45010838 .00099990 00000-0 40264-3 0 9994 2 41895 51.6335 85.8445 0005367 346.5412 13.5448 15.85594703 59615 TO-89 1 41932U 98067KU 18004.69157572 .00016716 00000-0 15516-3 0 9996 2 41932 51.6389 97.4024 0004442 304.0542 56.0032 15.67582969 55050 AOBA-V3LOX3 1 41935U 98067KX 18004.51881667 .00021695 00000-0 18813-3 0 9994 2 41935 051.6380 096.9794 0004002 307.0738 052.9893 15.69054505055146 OSNSAT 1 41939U 98067KZ 18004.55546230 .00750198 31739-3 76373-3 0 9994 2 41939 051.6247 075.8646 0008832 008.0479 352.0676 16.10176160054689 EO-88 1 42017U 17008BX 18004.55858003 .00001377 00000-0 59970-4 0 9999 2 42017 097.4708 070.4517 0005354 224.8321 135.2484 15.23913629049140 HAVELSAT 1 42700U 98067LH 18004.77073376 .00014707 00000-0 16014-3 0 9990 2 42700 51.6384 105.4107 0004945 354.5266 5.5674 15.63666360 36393 SOMP2 1 42701U 98067LJ 18004.74998529 .00014895 00000-0 16544-3 0 9990 2 42701 51.6379 106.0223 0004950 354.2911 5.8027 15.63142353 36378 Columbia 1 42702U 98067LK 18004.66494857 .00098592 00000-0 51054-3 0 9998 2 42702 51.6320 97.1123 0006213 340.6194 19.4571 15.80240191 36418 PHOENIX 1 42706U 98067LP 18004.86480963 .00014468 00000-0 16126-3 0 9998 2 42706 51.6381 105.2917 0001128 314.6008 45.4895 15.63086265 36314 X-CubeSat 1 42707U 98067LQ 18004.71597796 .00015384 00000-0 16701-3 0 9993 2 42707 51.6364 105.7769 0001393 313.5170 46.5709 15.63706733 36289 qbee 1 42708U 98067LR 18004.73245976 .00015570 00000-0 17099-3 0 9994 2 42708 51.6377 105.8939 0001351 313.0099 47.0782 15.63398434 36241 ZA-AeroSat 1 42713U 98067LU 18004.70777895 .00013500 00000-0 15728-3 0 9995 2 42713 51.6376 107.2388 0002181 283.0716 77.0035 15.62007094 35931 LINK 1 42714U 98067LV 18004.82559841 .00024783 00000-0 24238-3 0 9999 2 42714 51.6351 104.2480 0002600 290.4101 69.6616 15.65989715 36093 UPSat 1 42716U 98067LX 18004.77411336 .00019312 00000-0 19693-3 0 9992 2 42716 51.6376 104.6788 0003540 352.7331 7.3613 15.65108764 36103 SpaceCube 1 42717U 98067LY 18004.75149197 .00015375 00000-0 16960-3 0 9993 2 42717 51.6374 106.0265 0003508 354.9725 5.1233 15.63294085 35320 Hoopoe 1 42718U 98067LZ 18004.82544001 .00017767 00000-0 18798-3 0 9993 2 42718 51.6379 105.0212 0003496 351.6095 8.4841 15.64238513 35345 Challenger 1 42721U 98067MA 18004.75010690 .00027720 00000-0 25408-3 0 9997 2 42721 51.6360 103.7427 0006012 332.8687 27.1995 15.67522314 35051 NJUST-1 1 42722U 98067MB 18004.81889392 .00011750 00000-0 14039-3 0 9992 2 42722 51.6384 107.2310 0006197 338.9361 21.1377 15.61488180 35018 UNSW-EC0 1 42723U 98067MC 18004.73249996 .00018737 00000-0 19767-3 0 9999 2 42723 51.6388 105.9086 0005834 334.6932 25.3777 15.64258555 35005 DUTHsat 1 42724U 98067MD 18004.85040630 .00026291 00000-0 24700-3 0 9994 2 42724 51.6368 103.6792 0005255 334.9394 25.1346 15.66946807 34965 LO-90 1 42725U 98067ME 18004.71351421 .00014497 00000-0 16539-3 0 9999 2 42725 51.6385 107.2794 0005284 339.2282 20.8497 15.62473462 34904 nSIGHT1 1 42726U 98067MF 18004.72401170 .00006077 00000-0 83391-4 0 9994 2 42726 51.6397 109.6120 0005689 345.5145 14.5684 15.58854243 34884 QBITO 1 42728U 98067MH 18004.84729885 .00014505 00000-0 16079-3 0 9998 2 42728 51.6399 105.9442 0002955 342.8985 17.1910 15.63224868 34745 Aalto-2 1 42729U 98067MJ 18004.84417018 .00015103 00000-0 16652-3 0 9993 2 42729 51.6384 105.9046 0002943 342.0955 17.9935 15.63324900 34750 SUSat 1 42730U 98067MK 18004.74361872 .00015073 00000-0 16932-3 0 9997 2 42730 51.6378 106.7259 0003025 339.9426 20.1449 15.62843984 34720 i-INSPIRE II 1 42731U 98067ML 18004.77472508 .00020664 00000-0 21476-3 0 9991 2 42731 51.6370 105.4126 0006230 289.5631 70.4691 15.64563842 34799 PolyITAN-2-SAU 1 42732U 98067MM 18004.70287594 .00015608 00000-0 17059-3 0 9998 2 42732 51.6378 106.4399 0006299 287.9347 72.0961 15.63505668 34779 SNUSAT-1 1 42733U 98067MN 18004.74481365 .00015430 00000-0 17315-3 0 9993 2 42733 51.6378 106.7250 0006298 290.6164 69.4154 15.62836182 34777 ExAlta-1 1 42734U 98067MP 18004.78044360 .00019169 00000-0 19957-3 0 9995 2 42734 51.6364 105.4521 0007448 313.1882 46.8490 15.64567107 34745 Aoxiang-1 1 42735U 98067MQ 18004.74369041 .00012576 00000-0 14891-3 0 9995 2 42735 51.6377 107.4699 0006727 335.4003 24.6669 15.61644932 36135 BeEagleSat 1 42736U 98067MR 18004.71347065 .00014672 00000-0 16868-3 0 9990 2 42736 51.6376 107.2669 0006626 333.5345 26.5310 15.62253878 34820 Atlantis 1 42737U 98067MS 18004.69953779 .00067717 00000-0 42630-3 0 9997 2 42737 51.6309 99.5956 0006938 328.1433 31.9146 15.76020011 34815 CAS-4B 1 42759U 17034B 18004.79067728 .00000169 00000-0 24007-4 0 9994 2 42759 43.0191 260.1877 0007639 172.3949 237.4089 15.09158787 30768 CAS-4A 1 42761U 17034D 18004.78227317 .00000207 00000-0 26372-4 0 9998 2 42761 43.0192 260.1073 0007940 172.6572 246.1645 15.09234782 30754 UCLSat 1 42765U 17036A 18004.39769214 .00001183 00000-0 55800-4 0 9990 2 42765 97.4248 66.7199 0010422 293.5265 66.4876 15.21407195 29800 NIUSat 1 42766U 17036B 18004.82813065 .00000882 00000-0 44045-4 0 9997 2 42766 97.4250 66.7649 0014526 275.8652 84.0927 15.20035632 29711 LituanicaSAT 2 1 42768U 17036D 18004.78406352 .00001782 00000-0 84098-4 0 9993 2 42768 97.4253 66.8246 0014417 278.9019 81.0584 15.20678339 29724 Aalto 1 1 42775U 17036L 18004.24234775 .00000772 00000-0 38494-4 0 9997 2 42775 097.4247 066.3191 0012722 279.2774 080.7022 15.20445590029586 URSA MAIOR 1 42776U 17036M 18004.17052218 .00000826 00000-0 40900-4 0 9995 2 42776 97.4252 66.2701 0012582 279.7504 80.2310 15.20507806 29572 Max Valier Sat 1 42778U 17036P 18004.24973151 .00000887 00000-0 43165-4 0 9996 2 42778 97.4270 66.5109 0011173 285.3632 74.6369 15.20955520 29581 Pegasus 1 42784U 17036V 18004.61340811 .00001052 00000-0 50190-4 0 9996 2 42784 097.4251 066.8963 0010947 292.4061 067.6014 15.21243848029641 NUDATSat 1 42787U 17036Y 18004.71496011 .00001509 00000-0 69823-4 0 9994 2 42787 97.4253 67.0677 0010551 292.0427 67.9688 15.21640698 29503 SUCHAI 1 1 42788U 17036Z 18004.72717596 .00001207 00000-0 56793-4 0 9997 2 42788 97.4250 67.0476 0010581 292.1324 67.8788 15.21445335 29734 SKCUBE 1 42789U 17036AA 18004.59282038 .00001142 00000-0 53919-4 0 9996 2 42789 097.4249 066.9190 0010427 292.7282 067.2852 15.21439989029635 VZLUSAT 1 1 42790U 17036AB 18004.11536623 .00001541 00000-0 71194-4 0 9996 2 42790 097.4251 066.4842 0010146 295.0042 065.0140 15.21672667029567 VENTA 1 1 42791U 17036AC 18004.58111774 .00001124 00000-0 53001-4 0 9998 2 42791 097.4249 066.9331 0010044 293.6567 066.3615 15.21511250029624 Robusta 1B 1 42792U 17036AD 18004.11595137 .00001214 00000-0 56883-4 0 9998 2 42792 097.4248 066.4804 0010026 296.0356 063.9847 15.21572932029575 D-SAT 1 42794U 17036AF 18004.81023213 .00000164 00000-0 19627-4 0 9996 2 42794 97.6165 65.4319 0128827 105.5961 255.9520 14.90754866 29385 BIRD-J 1 42820U 98067MU 18004.50379462 .00014324 00000-0 16976-3 0 9991 2 42820 51.6377 109.6170 0002871 270.3692 89.6973 15.61499380 28231 BIRD-G 1 42821U 98067MV 18004.70987950 .00013344 00000-0 16000-3 0 9990 2 42821 51.6375 108.7433 0002859 274.8714 85.1953 15.61266087 28248 BIRD-M 1 42822U 98067MW 18004.57953004 .00013385 00000-0 15998-3 0 9999 2 42822 051.6378 109.3745 0002866 276.2084 083.8583 15.61346374028241 BIRD-B 1 42823U 98067MX 18004.70918939 .00013707 00000-0 16353-3 0 9997 2 42823 51.6382 108.7479 0005758 296.5625 63.4779 15.61361272 28248 BIRD-N 1 42824U 98067MY 18004.52607128 .00013551 00000-0 16243-3 0 9998 2 42824 51.6389 109.7809 0005626 296.3328 63.7087 15.61249926 28208 TechnoSat 1 42829U 17042E 18004.85905787 .00000106 00000-0 16252-4 0 9998 2 42829 97.6082 273.2406 0015033 28.1684 332.0345 14.90749175 26009 Mayak 1 42830U 17042F 18004.84079233 .00000678 00000-0 73782-4 0 9992 2 42830 97.6089 273.2783 0015260 25.2341 334.9620 14.91051944 25991 OBJECT MZ 1 42910U 98067MZ 18004.71646785 .00010366 00000-0 13373-3 0 9999 2 42910 51.6370 110.2761 0006588 318.6787 41.3706 15.59613179 21837 OBJECT NA 1 42911U 98067NA 18004.76784704 .00011132 00000-0 14117-3 0 9998 2 42911 51.6384 109.8914 0006182 313.8803 46.1679 15.59980979 21829 OBJECT NB 1 42912U 98067NB 18004.85334414 .00009836 00000-0 12702-3 0 9994 2 42912 51.6379 109.6783 0005551 327.1983 32.8664 15.59659821 21850 OBJECT NC 1 42913U 98067NC 18004.85892934 .00018252 00000-0 20677-3 0 9993 2 42913 51.6370 108.2287 0004669 332.5077 27.5670 15.62455228 21834 OBJECT ND 1 42914U 98067ND 18004.86655044 .00009706 00000-0 12675-3 0 9997 2 42914 51.6383 109.7965 0005477 321.2607 38.7993 15.59381022 21849 QIKCOM-1 1 42983U 98067NF 18004.86473560 .00003388 00000-0 56476-4 0 9992 2 42983 51.6429 112.6011 0003540 317.0626 133.2504 15.55084685 10796 AO-91 1 43017U 17073E 18004.50934508 .00000557 00000-0 48727-4 0 9999 2 43017 97.6961 302.6011 0262055 84.4275 278.6759 14.77823083 6933 EcAMSat 1 43019U 98067NG 18004.85032947 .00004196 00000-0 67683-4 0 9992 2 43019 51.6404 112.6962 0004806 286.7277 73.3187 15.55319805 93118 /EX